sat.trackr.live / text

‹ back to catalog

STARLINK-33903

NORAD 63828 · 2025-092AA

PAYLOAD ACTIVE UNKNOWN

§ Identity

Operator
Country
US
Launch date
2025-05-04
Launch site
AFETR
Launch vehicle
Mass (kg)
RCS (m²)

Purposes: comms

External: N2YO · Heavens-Above · Gunter

§ Orbital elements

Epoch: 2026-05-25T04:26:30.740064Z

Period
94.26 min
Inclination
43.0002°
Eccentricity
0.0001303
Mean motion
15.27617865 rev/d
Perigee alt
482.0 km
Apogee alt
483.8 km
Semi-major
6,861.1 km
B*
6.2862e-4
RAAN
100.5302°
Arg perigee
261.2142°
Mean anomaly
98.8562°
Rev number
6,036

§ Raw data

STARLINK-339031 63828U 25092AA  26145.18507801  .00017096  00000+0  62862-3 0  99922 63828  43.0002 100.5302 0001303 261.2142  98.8562 15.27617865 60365

JSON: /api/v1/satellites/63828 · /tle

For live sub-satellite position, see the globe view (requires WebGL).

§ Visibility from observer

Set your observer location to see the next 7 days of passes ≥ 10°. The values pass through the URL so the page stays shareable.

No JS? Fill the form by hand. The geolocation button needs JavaScript.